Weather History for K06D - December, 2012

Change the Weather History Date:

Thursday, December 6, 2012

  Actual Average (KRUG) Record (KRUG)
Temperature  
Mean Temperature 15 °F -  
Max Temperature 24 °F 23 °F 45 °F (1967)
Min Temperature 6 °F 2 °F -27 °F (1950)
Degree Days  
Heating Degree Days 50    
Moisture  
Dew Point 15 °F    
Average Humidity 89    
Maximum Humidity 100    
Minimum Humidity 80    
Precipitation  
Precipitation 0.00 in - - ()
Sea Level Pressure  
Sea Level Pressure 29.89 in    
Wind  
Wind Speed 14 mph (WNW)    
Max Wind Speed 21 mph    
Max Gust Speed 31 mph    
Visibility 10 miles    
Events      
Averages and records for this station are not official NWS values.
T = Trace of Precipitation, MM = Missing Value Source: NWS Daily Summary

Daily Weather History Graph

Daily Weather History Graph

Search for Another Location

Airport or City:

Trip Planner

Search our weather history database for the weather conditions in past years. The results will help you decide how hot, cold, wet, or windy it might be!

Date:

Astronomy

Dec. 06, 2012 Rise Set
Actual Time 8:17 AM CST 4:42 PM CST
Civil Twilight 7:40 AM CST 5:18 PM CST
Nautical Twilight 7:00 AM CST 5:58 PM CST
Astronomical Twilight 6:22 AM CST 6:37 PM CST
Moon 12:00 AM CST (12/6) 12:40 PM CST (12/6)
Length of Visible Light 9h 38m
Length of Day
8h 24m
Waning Gibbous, 49% of the Moon is Illuminated
Dec 6
Waning Gibbous
Dec 13
New
Dec 19
First Quarter
Dec 28
Full
Jan 4
Last Quarter

Hourly Weather History & Observations

Time (CST) Temp. Windchill Dew Point Humidity Pressure Visibility Wind Dir Wind Speed Gust Speed Precip Events Conditions
7:35 AM 17.6 °F 2.2 °F 14.0 °F 86% 29.81 in 10.0 mi NW 17.3 mph - N/A   Clear
7:55 AM 17.6 °F 3.7 °F 14.0 °F 86% 29.82 in 10.0 mi WNW 13.8 mph 21.9 mph N/A   Scattered Clouds
8:15 AM 15.8 °F -0.2 °F 14.0 °F 93% 29.82 in 10.0 mi NW 17.3 mph 23.0 mph N/A   Scattered Clouds
8:35 AM 15.8 °F 1.4 °F 14.0 °F 93% 29.82 in 10.0 mi WNW 13.8 mph 21.9 mph N/A   Partly Cloudy
9:15 AM 15.8 °F 0.9 °F 12.2 °F 86% 29.84 in 10.0 mi NW 15.0 mph 18.4 mph N/A   Clear
9:35 AM 17.6 °F 1.3 °F 14.0 °F 86% 29.85 in 10.0 mi NW 19.6 mph - N/A   Clear
9:55 AM 17.6 °F 3.7 °F 14.0 °F 86% 29.86 in 10.0 mi WNW 13.8 mph - N/A   Clear
10:15 AM 17.6 °F 5.0 °F 14.0 °F 86% 29.87 in 10.0 mi WNW 11.5 mph - N/A   Clear
10:35 AM 19.4 °F 6.0 °F 15.8 °F 86% 29.87 in 10.0 mi WNW 13.8 mph 19.6 mph N/A   Clear
10:55 AM 19.4 °F 9.5 °F 15.8 °F 86% 29.88 in 10.0 mi WNW 8.1 mph - N/A   Clear
11:15 AM 21.2 °F 12.6 °F 17.6 °F 86% 29.88 in 10.0 mi West 6.9 mph - N/A   Clear
11:35 AM 21.2 °F 8.3 °F 17.6 °F 86% 29.87 in 10.0 mi West 13.8 mph - N/A   Clear
11:55 AM 23.0 °F 12.4 °F 17.6 °F 80% 29.87 in 10.0 mi West 10.4 mph - N/A   Clear
12:15 PM 23.0 °F 9.6 °F 17.6 °F 80% 29.88 in 10.0 mi West 16.1 mph - N/A   Clear
12:35 PM 21.2 °F 7.8 °F 17.6 °F 86% 29.88 in 10.0 mi West 15.0 mph 20.7 mph N/A   Scattered Clouds
12:55 PM 23.0 °F 8.0 °F 19.4 °F 86% 29.87 in 10.0 mi West 20.7 mph 24.2 mph N/A   Mostly Cloudy
1:15 PM 23.0 °F 9.6 °F 21.2 °F 93% 29.87 in 10.0 mi WNW 16.1 mph - N/A   Overcast
1:35 PM 23.0 °F 9.6 °F 21.2 °F 93% 29.87 in 10.0 mi West 16.1 mph 25.3 mph N/A   Overcast
1:55 PM 24.8 °F 12.9 °F 23.0 °F 93% 29.88 in 10.0 mi West 13.8 mph - N/A   Overcast
2:15 PM 24.8 °F 11.9 °F 23.0 °F 93% 29.87 in 10.0 mi West 16.1 mph 24.2 mph N/A   Overcast
2:35 PM 24.8 °F 11.1 °F 23.0 °F 93% 29.87 in 10.0 mi West 18.4 mph 31.1 mph N/A   Overcast
2:55 PM 24.8 °F 10.3 °F 21.2 °F 86% 29.87 in 10.0 mi WNW 20.7 mph - N/A   Mostly Cloudy
3:15 PM 24.8 °F 11.5 °F 21.2 °F 86% 29.87 in 10.0 mi West 17.3 mph - N/A   Mostly Cloudy
3:35 PM 23.0 °F 9.6 °F 19.4 °F 86% 29.88 in 10.0 mi West 16.1 mph 24.2 mph N/A   Scattered Clouds
3:55 PM 23.0 °F 9.6 °F 19.4 °F 86% 29.88 in 10.0 mi West 16.1 mph - N/A   Clear
4:15 PM 23.0 °F 11.7 °F 19.4 °F 86% 29.88 in 10.0 mi West 11.5 mph - N/A   Clear
4:35 PM 21.2 °F 10.9 °F 17.6 °F 86% 29.89 in 10.0 mi West 9.2 mph - N/A   Clear
4:55 PM 19.4 °F 8.6 °F 17.6 °F 93% 29.90 in 10.0 mi West 9.2 mph - N/A   Clear
5:15 PM 19.4 °F 8.6 °F 15.8 °F 86% 29.90 in 10.0 mi West 9.2 mph - N/A   Clear
5:35 PM 17.6 °F 4.3 °F 15.8 °F 93% 29.90 in 10.0 mi West 12.7 mph - N/A   Clear
5:55 PM 17.6 °F 3.2 °F 14.0 °F 86% 29.90 in 10.0 mi West 15.0 mph - N/A   Clear
6:15 PM 17.6 °F 3.2 °F 15.8 °F 93% 29.90 in 10.0 mi West 15.0 mph - N/A   Clear
6:35 PM 15.8 °F 2.1 °F 15.8 °F 100% 29.90 in 10.0 mi West 12.7 mph - N/A   Clear
6:55 PM 15.8 °F 2.1 °F 15.8 °F 100% 29.90 in 10.0 mi West 12.7 mph - N/A   Clear
7:15 PM 15.8 °F 3.4 °F 15.8 °F 100% 29.91 in 10.0 mi West 10.4 mph - N/A   Clear
7:35 PM 15.8 °F 4.2 °F 15.8 °F 100% 29.91 in 10.0 mi WNW 9.2 mph - N/A   Partly Cloudy
7:55 PM 17.6 °F 5.0 °F 15.8 °F 93% 29.91 in 10.0 mi NW 11.5 mph - N/A   Scattered Clouds
8:35 PM 15.8 °F 3.4 °F 14.0 °F 93% 29.92 in 10.0 mi NW 10.4 mph - N/A   Partly Cloudy
8:55 PM 15.8 °F 2.1 °F 12.2 °F 86% 29.92 in 10.0 mi NW 12.7 mph - N/A   Clear
9:15 PM 14.0 °F -0.8 °F 10.4 °F 86% 29.93 in 10.0 mi NNW 13.8 mph - N/A   Clear
9:35 PM 14.0 °F -1.4 °F 10.4 °F 86% 29.94 in 10.0 mi NNW 15.0 mph - N/A   Clear
9:55 PM 12.2 °F -3.7 °F 10.4 °F 92% 29.95 in 10.0 mi NNW 15.0 mph 20.7 mph N/A   Clear
10:15 PM 10.4 °F -2.4 °F 8.6 °F 92% 29.95 in 10.0 mi NW 9.2 mph - N/A   Clear
10:35 PM 10.4 °F -1.5 °F 6.8 °F 85% 29.96 in 10.0 mi NNW 8.1 mph - N/A   Clear
10:55 PM 8.6 °F -5.5 °F 5.0 °F 85% 29.96 in 10.0 mi NNW 10.4 mph - N/A   Clear
11:15 PM 6.8 °F -6.9 °F 5.0 °F 92% 29.97 in 10.0 mi NNW 9.2 mph - N/A   Clear
11:35 PM 6.8 °F -9.3 °F 5.0 °F 92% 29.97 in 10.0 mi NW 12.7 mph - N/A   Clear
11:55 PM 6.8 °F -5.9 °F 3.2 °F 85% 29.97 in 10.0 mi NW 8.1 mph - N/A   Clear